Location: Unspecified
(35.6961°N, 0.0000°E)
Time: 19:54:05
(UTC+00:00)

Vanguard 2 Rocket - Pass Details

Date: 27 May 2019
Orbit: 554 x 3326 km, 32.9° (Epoch: 17 June)

Event Time Altitude Azimuth Distance (km) Brightness Sun altitude
Rises 10:14:16 0° 282° (WNW) 6,086 10.8 63.3°
Reaches altitude 10° 10:19:12 10° 277° (W) 4,611 10.4 64.2°
Maximum altitude 10:29:43 40° 213° (SSW) 1,930 9.2 66.1°
Drops below altitude 10° 10:35:57 10° 145° (SE) 2,741 9.8 67.2°
Sets 10:38:11 0° 137° (SE) 3,442 10.2 67.5°
